Farmington, MO

6:49 PM CDT on October 14, 2019 (GMT -0500)
Farmington Regional

Weather History for KFAM - September, 2019

Change the Weather History Date:

Friday, September 20, 2019

  Actual Average Record
Temperature  
Mean Temperature 75 °F -  
Max Temperature 84 °F 75 °F 91 °F (2017)
Min Temperature 66 °F 52 °F 39 °F (2006)
Cooling Degree Days 10    
Growing Degree Days 25 (Base 50)    
Moisture  
Dew Point 70 °F    
Average Humidity 89    
Maximum Humidity 100    
Minimum Humidity 66    
Precipitation  
Precipitation 0.00 in - - ()
Sea Level Pressure  
Sea Level Pressure 30.14 in    
Wind  
Wind Speed 6 mph (SSE)    
Max Wind Speed 16 mph    
Max Gust Speed 21 mph    
Visibility 9 miles    
Events Rain , Thunderstorm    
Averages and records for this station are not official NWS values.
T = Trace of Precipitation, MM = Missing Value Source: NWS Daily Summary

Daily Weather History Graph

Daily Weather History Graph

Search for Another Location

Airport or City:

Astronomy

Sep. 20, 2019 Rise Set
Actual Time 6:47 AM CDT 7:02 PM CDT
Civil Twilight 6:21 AM CDT 7:28 PM CDT
Nautical Twilight 5:50 AM CDT 7:58 PM CDT
Astronomical Twilight 5:19 AM CDT 8:30 PM CDT
Moon 10:58 PM CDT (9/20) 12:46 PM CDT (9/20)
Length of Visible Light 13h 06m
Length of Day
12h 14m
Waning Gibbous, 65% of the Moon is Illuminated
Sep 20
Waning Gibbous
Sep 21
Last Quarter
Sep 28
New
Oct 5
First Quarter
Oct 13
Full

Hourly Weather History & Observations

Time (CDT) Temp. Heat Index Dew Point Humidity Pressure Visibility Wind Dir Wind Speed Gust Speed Precip Events Conditions
12:56 AM 71.1 °F - 69.1 °F 93% 30.11 in 10.0 mi Calm Calm - N/A   Scattered Clouds
1:56 AM 70.0 °F - 66.9 °F 90% 30.11 in 10.0 mi South 4.6 mph - N/A   Partly Cloudy
2:56 AM 70.0 °F - 66.0 °F 87% 30.11 in 10.0 mi SSE 4.6 mph - N/A   Clear
3:56 AM 68.0 °F - 66.0 °F 93% 30.09 in 10.0 mi Calm Calm - N/A   Clear
4:56 AM 66.9 °F - 66.0 °F 97% 30.10 in 10.0 mi Calm Calm - N/A   Clear
5:56 AM 66.9 °F - 66.0 °F 97% 30.12 in 10.0 mi Calm Calm - N/A   Clear
6:56 AM 66.9 °F - 66.0 °F 97% 30.13 in 8.0 mi SE 3.5 mph - N/A   Clear
7:56 AM 70.0 °F - 69.1 °F 97% 30.15 in 6.0 mi SSE 5.8 mph - N/A   Clear
8:56 AM 73.0 °F - 71.1 °F 93% 30.16 in 8.0 mi SSE 6.9 mph - N/A   Clear
9:56 AM 75.9 °F - 71.1 °F 85% 30.17 in 10.0 mi South 9.2 mph - N/A   Partly Cloudy
10:21 AM 75.2 °F - 71.6 °F 89% 30.17 in 10.0 mi South 12.7 mph - N/A   Mostly Cloudy
10:56 AM 78.1 °F - 72.0 °F 81% 30.18 in 10.0 mi South 10.4 mph - N/A   Overcast
11:36 AM 82.4 °F 87.2 °F 71.6 °F 70% 30.16 in 10.0 mi SSW 12.7 mph - N/A   Scattered Clouds
11:56 AM 82.9 °F 88.0 °F 72.0 °F 69% 30.16 in 10.0 mi South 13.8 mph 20.7 mph N/A   Scattered Clouds
12:10 PM 84.2 °F 89.6 °F 71.6 °F 66% 30.16 in 10.0 mi South 12.7 mph - N/A   Mostly Cloudy
12:19 PM 84.2 °F 89.6 °F 71.6 °F 66% 30.16 in 10.0 mi South 16.1 mph - N/A   Scattered Clouds
12:56 PM 84.0 °F 89.6 °F 72.0 °F 67% 30.14 in 10.0 mi South 11.5 mph - N/A   Scattered Clouds
1:48 PM 84.2 °F 89.6 °F 71.6 °F 66% 30.14 in 10.0 mi South 6.9 mph - N/A   Mostly Cloudy
1:56 PM 84.0 °F 89.6 °F 72.0 °F 67% 30.13 in 10.0 mi South 5.8 mph - N/A   Scattered Clouds
2:35 PM 78.8 °F - 75.2 °F 89% 30.12 in 10.0 mi WNW 4.6 mph - N/A Rain , Thunderstorm Light Rain
2:56 PM 82.0 °F 88.6 °F 75.0 °F 79% 30.12 in 8.0 mi North 5.8 mph - N/A Thunderstorm Scattered Clouds
3:54 PM 69.8 °F - 69.8 °F 100% 30.13 in 3.0 mi SSE 13.8 mph - N/A Rain , Thunderstorm Heavy Thunderstorms and Rain
3:56 PM 70.0 °F - 69.1 °F 97% 30.14 in 3.0 mi SSE 13.8 mph - N/A Rain , Thunderstorm Heavy Thunderstorms and Rain
4:04 PM 71.6 °F - 69.8 °F 94% 30.14 in 3.0 mi SE 13.8 mph 19.6 mph N/A Rain , Thunderstorm Thunderstorms and Rain
4:08 PM 71.6 °F - 71.6 °F 100% 30.14 in 5.0 mi ESE 11.5 mph 19.6 mph N/A Rain , Thunderstorm Thunderstorms and Rain
4:56 PM 72.0 °F - 71.1 °F 97% 30.15 in 9.0 mi South 3.5 mph - N/A Rain Light Rain
5:56 PM 73.0 °F - 72.0 °F 96% 30.15 in 10.0 mi South 4.6 mph - N/A   Partly Cloudy
6:56 PM 73.0 °F - 72.0 °F 96% 30.14 in 8.0 mi ESE 6.9 mph - N/A   Clear
7:53 PM 71.6 °F - 71.6 °F 100% 30.15 in 9.0 mi SE 5.8 mph - N/A   Scattered Clouds
7:56 PM 72.0 °F - 72.0 °F 100% 30.17 in 9.0 mi SE 8.1 mph - N/A   Scattered Clouds
8:29 PM 71.6 °F - 71.6 °F 100% 30.16 in 9.0 mi SSE 5.8 mph - N/A   Mostly Cloudy
8:54 PM 71.6 °F - 71.6 °F 100% 30.16 in 10.0 mi SSE 9.2 mph - N/A   Scattered Clouds
8:56 PM 71.1 °F - 71.1 °F 100% 30.17 in 10.0 mi SSE 8.1 mph - N/A   Partly Cloudy
9:56 PM 71.1 °F - 70.0 °F 96% 30.16 in 10.0 mi SSE 4.6 mph - N/A   Clear
10:56 PM 70.0 °F - 70.0 °F 100% 30.16 in 8.0 mi SSE 3.5 mph - N/A   Clear
11:56 PM 71.1 °F - 71.1 °F 100% 30.15 in 10.0 mi South 3.5 mph - N/A   Clear